Location: Boiro
(42.6475°N, 8.8834°W)
Time: 12:27:18
(UTC+02:00)

SL-8 DEB - Pass Details

Date: 04 July 2022
Orbit: 890 x 1013 km, 83.1° (Epoch: 16 August)

Event Time Altitude Azimuth Distance (km) Brightness Sun altitude
Rises 00:09:42 0° 2° (N) 3,608 ? -15.9°
Reaches altitude 10° 00:12:40 10° 15° (NNE) 2,639 ? -16.2°
Maximum altitude 00:17:37 26° 71° (ENE) 1,703 ? -16.7°
Enters shadow 00:20:17 19° 109° (ESE) 2,002 ? -17.0°
